GEFSMW_prec_meanprecacc_174.txt.gz
Total_Precipitation_Accumulation
0.80 1.13 1.65 2.28 2.75 2.92 2.90 2.94 2.92 2.96 3.01 2.98 3.04 3.27 3.46 3.48 3.43 3.53 3.58 3.43 3.34 3.37 3.48 3.48 3.42 3.18 2.99 2.88 2.82 2.71 2.51 2.27 2.06 2.03 1.97 1.79 1.62 1.57 1.50 1.42 1.38 1.30 1.26
0.81 1.20 1.58 1.98 2.36 2.66 2.80 2.90 2.84 3.05 3.29 3.59 3.98 4.30 4.52 4.47 4.31 4.22 4.13 3.98 3.86 3.78 3.70 3.69 3.52 3.29 3.15 2.94 2.75 2.66 2.54 2.36 2.20 2.14 2.19 1.94 1.77 1.53 1.38 1.39 1.32 1.24 1.21
0.85 1.14 1.35 1.63 1.96 2.31 2.58 2.74 2.94 3.35 3.79 4.26 4.94 5.40 5.31 4.98 4.83 4.56 4.44 4.19 3.90 3.83 3.84 3.62 3.43 3.23 3.04 2.89 2.69 2.61 2.55 2.36 2.25 2.18 2.25 2.09 1.89 1.67 1.53 1.37 1.26 1.23 1.22
0.83 0.98 1.20 1.42 1.67 2.09 2.47 2.77 3.13 3.65 4.25 4.69 5.14 5.45 5.48 5.28 5.05 4.60 4.22 3.82 3.47 3.29 3.21 3.14 2.95 2.83 2.71 2.57 2.42 2.39 2.34 2.23 2.08 1.99 1.84 1.73 1.66 1.64 1.53 1.38 1.25 1.23 1.24
0.78 0.85 0.98 1.18 1.48 1.90 2.33 2.69 3.02 3.60 4.16 4.66 5.00 5.20 5.31 5.21 4.88 4.26 3.67 3.30 3.00 2.78 2.58 2.40 2.32 2.30 2.22 2.03 1.87 1.83 1.80 1.75 1.69 1.67 1.57 1.49 1.42 1.42 1.38 1.33 1.26 1.20 1.13
0.79 0.83 0.93 1.07 1.36 1.68 2.04 2.36 2.68 3.34 3.98 4.51 4.88 5.12 5.16 4.90 4.35 3.76 3.25 2.94 2.68 2.45 2.25 2.12 1.96 1.85 1.73 1.57 1.42 1.34 1.34 1.39 1.41 1.40 1.36 1.25 1.21 1.22 1.25 1.20 1.14 1.11 1.08
0.77 0.79 0.93 1.02 1.25 1.54 1.81 2.12 2.48 2.92 3.41 3.81 4.04 4.19 4.23 4.04 3.73 3.37 2.95 2.60 2.38 2.17 1.94 1.69 1.53 1.43 1.36 1.27 1.20 1.11 1.09 1.15 1.20 1.16 1.14 1.12 1.06 1.04 1.10 1.15 1.12 1.06 1.02
0.83 0.85 0.96 1.02 1.09 1.29 1.55 1.89 2.20 2.49 2.72 2.89 3.08 3.07 3.03 2.97 2.82 2.49 2.14 1.88 1.65 1.52 1.36 1.18 1.11 1.05 1.03 1.02 1.00 0.95 0.90 0.93 1.04 1.08 1.09 1.11 1.10 1.11 1.14 1.18 1.23 1.27 1.16
0.86 0.89 0.96 0.99 1.06 1.17 1.36 1.56 1.71 1.89 1.95 1.89 1.91 1.97 1.99 1.95 1.83 1.67 1.43 1.18 0.99 0.89 0.82 0.75 0.75 0.69 0.71 0.76 0.80 0.82 0.84 0.85 0.87 0.90 0.93 0.98 1.04 1.07 1.06 1.11 1.19 1.32 1.33
0.87 0.93 0.97 1.03 1.10 1.12 1.29 1.38 1.36 1.34 1.36 1.37 1.36 1.34 1.35 1.35 1.32 1.24 1.13 0.99 0.84 0.72 0.63 0.60 0.59 0.53 0.51 0.54 0.60 0.65 0.70 0.78 0.79 0.75 0.76 0.79 0.85 0.99 1.09 1.16 1.21 1.29 1.35
0.87 0.96 0.95 0.93 0.93 0.92 0.96 1.00 1.02 1.05 1.05 1.03 1.04 1.05 0.99 0.94 0.91 0.94 0.92 0.83 0.73 0.65 0.58 0.51 0.50 0.49 0.45 0.45 0.49 0.51 0.54 0.62 0.67 0.62 0.63 0.69 0.74 0.82 0.89 0.99 1.12 1.26 1.39
0.92 0.89 0.85 0.77 0.76 0.79 0.82 0.81 0.83 0.84 0.87 0.87 0.84 0.85 0.77 0.71 0.70 0.69 0.68 0.64 0.61 0.61 0.58 0.55 0.53 0.48 0.43 0.41 0.42 0.43 0.42 0.46 0.51 0.53 0.55 0.55 0.57 0.65 0.70 0.79 0.89 1.00 1.13
1.10 0.98 0.87 0.77 0.73 0.73 0.75 0.70 0.68 0.66 0.63 0.64 0.65 0.70 0.68 0.63 0.63 0.58 0.57 0.60 0.58 0.55 0.52 0.51 0.50 0.46 0.44 0.45 0.43 0.40 0.40 0.39 0.40 0.44 0.48 0.52 0.56 0.62 0.67 0.74 0.78 0.85 0.93
1.11 0.97 0.91 0.82 0.76 0.70 0.66 0.62 0.59 0.56 0.53 0.50 0.48 0.53 0.56 0.54 0.54 0.55 0.52 0.50 0.48 0.47 0.41 0.37 0.39 0.41 0.40 0.36 0.34 0.33 0.35 0.36 0.35 0.35 0.38 0.42 0.49 0.57 0.66 0.71 0.76 0.84 0.94
1.15 1.08 0.98 0.88 0.79 0.74 0.67 0.61 0.57 0.51 0.47 0.47 0.48 0.49 0.51 0.50 0.51 0.52 0.50 0.43 0.39 0.36 0.33 0.31 0.32 0.34 0.31 0.28 0.27 0.28 0.29 0.32 0.33 0.34 0.34 0.33 0.39 0.48 0.54 0.61 0.74 0.88 1.00
1.18 1.10 1.00 0.91 0.83 0.81 0.77 0.72 0.65 0.57 0.53 0.55 0.55 0.52 0.51 0.52 0.54 0.51 0.49 0.42 0.38 0.34 0.32 0.33 0.31 0.26 0.21 0.23 0.24 0.24 0.29 0.33 0.37 0.42 0.39 0.32 0.30 0.34 0.40 0.48 0.58 0.72 0.88
1.33 1.26 1.15 1.03 0.95 0.89 0.81 0.78 0.72 0.65 0.60 0.59 0.55 0.52 0.48 0.46 0.45 0.42 0.43 0.42 0.40 0.36 0.33 0.33 0.31 0.28 0.20 0.16 0.17 0.19 0.25 0.35 0.42 0.44 0.43 0.35 0.29 0.35 0.42 0.44 0.47 0.56 0.70
1.45 1.34 1.25 1.16 1.08 0.98 0.90 0.82 0.71 0.64 0.58 0.56 0.51 0.44 0.41 0.43 0.40 0.40 0.41 0.39 0.40 0.41 0.37 0.33 0.32 0.32 0.19 0.14 0.16 0.18 0.28 0.38 0.38 0.36 0.37 0.43 0.47 0.40 0.39 0.44 0.57 0.73 0.81
1.41 1.33 1.24 1.18 1.09 0.98 0.88 0.76 0.66 0.56 0.50 0.49 0.44 0.38 0.34 0.33 0.34 0.35 0.38 0.39 0.42 0.46 0.38 0.32 0.35 0.34 0.25 0.19 0.19 0.20 0.31 0.38 0.36 0.31 0.31 0.36 0.43 0.40 0.44 0.58 0.80 1.00 1.16
1.23 1.20 1.16 1.08 1.00 0.88 0.74 0.67 0.64 0.56 0.46 0.40 0.35 0.32 0.31 0.32 0.34 0.37 0.39 0.35 0.38 0.45 0.37 0.30 0.31 0.29 0.24 0.19 0.20 0.24 0.30 0.39 0.39 0.39 0.38 0.42 0.44 0.45 0.57 0.71 0.96 1.19 1.31
1.13 1.07 1.01 0.95 0.85 0.73 0.63 0.59 0.55 0.49 0.34 0.25 0.24 0.27 0.29 0.30 0.29 0.36 0.39 0.38 0.37 0.41 0.39 0.34 0.33 0.26 0.19 0.16 0.20 0.21 0.25 0.34 0.41 0.44 0.49 0.51 0.53 0.51 0.63 0.80 0.99 1.20 1.26
1.07 0.98 0.90 0.78 0.64 0.53 0.53 0.53 0.44 0.32 0.22 0.21 0.23 0.26 0.26 0.21 0.21 0.33 0.36 0.36 0.41 0.39 0.38 0.37 0.34 0.27 0.21 0.15 0.14 0.13 0.16 0.26 0.43 0.54 0.57 0.56 0.56 0.59 0.74 0.88 1.09 1.29 1.40
0.89 0.78 0.68 0.59 0.49 0.44 0.46 0.44 0.34 0.23 0.19 0.24 0.28 0.26 0.23 0.22 0.22 0.27 0.29 0.30 0.37 0.37 0.34 0.33 0.32 0.27 0.23 0.16 0.09 0.09 0.11 0.18 0.31 0.48 0.62 0.62 0.58 0.73 1.02 1.20 1.32 1.47 1.52
0.70 0.60 0.52 0.50 0.46 0.40 0.36 0.32 0.24 0.22 0.25 0.31 0.30 0.27 0.28 0.28 0.23 0.22 0.20 0.21 0.25 0.26 0.30 0.30 0.30 0.28 0.26 0.17 0.13 0.14 0.16 0.19 0.25 0.39 0.58 0.71 0.75 0.91 1.20 1.41 1.51 1.56 1.46
0.54 0.47 0.45 0.43 0.38 0.32 0.27 0.23 0.21 0.22 0.29 0.30 0.24 0.22 0.23 0.23 0.23 0.18 0.13 0.11 0.11 0.10 0.16 0.23 0.25 0.26 0.21 0.14 0.14 0.16 0.19 0.22 0.28 0.35 0.52 0.71 0.81 1.01 1.23 1.36 1.37 1.32 1.22
0.37 0.35 0.33 0.30 0.27 0.23 0.20 0.18 0.17 0.17 0.24 0.26 0.22 0.18 0.16 0.15 0.14 0.15 0.13 0.07 0.06 0.06 0.08 0.12 0.14 0.15 0.15 0.13 0.13 0.14 0.19 0.24 0.31 0.39 0.60 0.78 0.87 1.02 1.14 1.21 1.17 1.09 1.00

GEFSMW_prec_meanprecacc_180.txt.gz
Total_Precipitation_Accumulation
0.85 1.17 1.69 2.36 2.82 2.98 2.96 3.00 2.97 3.00 3.05 3.02 3.07 3.31 3.50 3.53 3.48 3.57 3.61 3.46 3.36 3.40 3.52 3.53 3.48 3.24 3.05 2.93 2.87 2.78 2.59 2.33 2.13 2.11 2.04 1.84 1.65 1.61 1.54 1.48 1.46 1.36 1.32
0.87 1.24 1.65 2.07 2.44 2.74 2.87 2.96 2.90 3.09 3.32 3.63 4.02 4.34 4.57 4.53 4.37 4.28 4.20 4.04 3.92 3.84 3.77 3.76 3.57 3.34 3.20 2.99 2.80 2.72 2.60 2.41 2.25 2.21 2.27 2.02 1.83 1.59 1.43 1.45 1.39 1.31 1.26
0.92 1.20 1.45 1.72 2.03 2.38 2.63 2.79 3.00 3.40 3.83 4.30 4.98 5.44 5.35 5.03 4.88 4.62 4.51 4.27 3.97 3.88 3.87 3.65 3.46 3.26 3.08 2.94 2.75 2.66 2.60 2.41 2.30 2.23 2.33 2.17 1.97 1.75 1.60 1.44 1.32 1.29 1.28
0.96 1.09 1.29 1.52 1.74 2.14 2.54 2.85 3.21 3.72 4.32 4.75 5.19 5.50 5.53 5.32 5.10 4.67 4.31 3.92 3.55 3.32 3.23 3.16 2.97 2.86 2.74 2.62 2.47 2.44 2.40 2.29 2.13 2.07 1.92 1.83 1.76 1.72 1.61 1.46 1.32 1.29 1.30
0.85 0.96 1.08 1.27 1.57 1.96 2.41 2.77 3.11 3.69 4.24 4.75 5.09 5.28 5.38 5.28 4.96 4.33 3.75 3.37 3.05 2.81 2.59 2.41 2.33 2.32 2.25 2.07 1.90 1.87 1.86 1.81 1.76 1.75 1.65 1.57 1.52 1.51 1.47 1.44 1.36 1.28 1.19
0.82 0.86 0.98 1.12 1.43 1.76 2.17 2.47 2.77 3.46 4.11 4.67 5.05 5.26 5.27 5.00 4.43 3.82 3.30 2.97 2.72 2.49 2.28 2.14 1.98 1.88 1.76 1.61 1.45 1.37 1.39 1.45 1.48 1.49 1.45 1.33 1.30 1.31 1.35 1.30 1.25 1.20 1.15
0.79 0.81 0.96 1.04 1.28 1.59 1.87 2.19 2.55 3.02 3.53 3.97 4.23 4.38 4.38 4.16 3.84 3.47 3.04 2.68 2.46 2.24 1.99 1.72 1.56 1.46 1.39 1.31 1.24 1.15 1.13 1.20 1.25 1.23 1.21 1.20 1.14 1.13 1.19 1.24 1.22 1.17 1.09
0.85 0.87 0.98 1.04 1.11 1.31 1.58 1.93 2.26 2.57 2.81 3.00 3.21 3.20 3.15 3.09 2.94 2.62 2.28 2.01 1.75 1.59 1.41 1.22 1.15 1.10 1.08 1.06 1.05 0.99 0.94 0.98 1.09 1.13 1.16 1.18 1.16 1.18 1.22 1.26 1.32 1.36 1.24
0.87 0.90 0.98 0.99 1.07 1.19 1.39 1.60 1.75 1.94 2.00 1.97 1.99 2.05 2.09 2.08 1.97 1.81 1.55 1.27 1.06 0.94 0.85 0.79 0.79 0.73 0.75 0.80 0.84 0.87 0.88 0.91 0.92 0.96 0.99 1.04 1.09 1.13 1.12 1.17 1.26 1.40 1.42
0.88 0.94 0.99 1.05 1.12 1.15 1.32 1.43 1.41 1.39 1.41 1.43 1.42 1.41 1.44 1.46 1.45 1.35 1.21 1.06 0.90 0.76 0.66 0.63 0.61 0.55 0.54 0.57 0.64 0.70 0.76 0.85 0.85 0.82 0.82 0.85 0.90 1.06 1.15 1.21 1.28 1.37 1.45
0.89 0.99 0.98 0.95 0.96 0.95 0.99 1.03 1.06 1.10 1.09 1.07 1.09 1.10 1.07 1.03 1.00 1.03 1.00 0.90 0.78 0.68 0.61 0.54 0.53 0.52 0.49 0.48 0.52 0.55 0.59 0.68 0.72 0.67 0.68 0.74 0.80 0.89 0.96 1.07 1.19 1.34 1.47
0.95 0.93 0.88 0.81 0.79 0.82 0.85 0.84 0.85 0.87 0.90 0.91 0.88 0.90 0.83 0.77 0.76 0.76 0.75 0.69 0.66 0.64 0.61 0.57 0.56 0.52 0.47 0.45 0.46 0.47 0.46 0.51 0.56 0.59 0.61 0.60 0.62 0.72 0.79 0.88 0.99 1.11 1.22
1.12 1.01 0.91 0.81 0.76 0.76 0.77 0.72 0.70 0.68 0.65 0.67 0.69 0.74 0.72 0.68 0.69 0.64 0.61 0.63 0.62 0.59 0.55 0.54 0.53 0.49 0.48 0.48 0.47 0.44 0.43 0.42 0.44 0.48 0.54 0.57 0.61 0.69 0.75 0.83 0.88 0.95 1.01
1.13 1.00 0.94 0.85 0.80 0.74 0.68 0.65 0.61 0.58 0.55 0.52 0.51 0.57 0.60 0.58 0.58 0.59 0.55 0.52 0.51 0.51 0.44 0.40 0.42 0.45 0.43 0.38 0.36 0.36 0.38 0.39 0.39 0.38 0.41 0.46 0.54 0.62 0.72 0.78 0.85 0.93 1.02
1.17 1.11 1.02 0.92 0.82 0.78 0.70 0.63 0.59 0.53 0.49 0.50 0.52 0.53 0.55 0.52 0.54 0.55 0.53 0.46 0.41 0.38 0.36 0.34 0.36 0.36 0.32 0.28 0.28 0.29 0.30 0.34 0.36 0.37 0.37 0.37 0.42 0.52 0.57 0.64 0.77 0.93 1.07
1.19 1.12 1.03 0.95 0.87 0.84 0.80 0.73 0.67 0.59 0.55 0.58 0.59 0.56 0.55 0.54 0.56 0.54 0.51 0.44 0.40 0.37 0.34 0.36 0.34 0.28 0.21 0.23 0.24 0.24 0.30 0.35 0.40 0.46 0.43 0.34 0.33 0.36 0.41 0.49 0.60 0.74 0.93
1.34 1.28 1.17 1.06 0.99 0.92 0.84 0.80 0.74 0.67 0.63 0.63 0.60 0.56 0.50 0.48 0.47 0.43 0.45 0.44 0.42 0.38 0.35 0.35 0.34 0.30 0.21 0.16 0.17 0.19 0.25 0.37 0.45 0.49 0.48 0.38 0.31 0.38 0.45 0.46 0.49 0.57 0.72
1.48 1.37 1.28 1.20 1.13 1.03 0.94 0.85 0.75 0.67 0.62 0.59 0.54 0.46 0.43 0.44 0.43 0.43 0.44 0.41 0.43 0.44 0.39 0.35 0.35 0.35 0.20 0.14 0.16 0.19 0.30 0.40 0.42 0.40 0.42 0.47 0.51 0.42 0.41 0.47 0.62 0.77 0.84
1.43 1.35 1.26 1.22 1.15 1.04 0.94 0.82 0.72 0.59 0.53 0.51 0.46 0.39 0.35 0.35 0.37 0.38 0.41 0.41 0.44 0.47 0.40 0.34 0.37 0.37 0.27 0.19 0.19 0.22 0.33 0.40 0.38 0.33 0.32 0.37 0.45 0.42 0.46 0.61 0.85 1.04 1.19
1.24 1.22 1.19 1.14 1.07 0.94 0.81 0.73 0.69 0.60 0.48 0.42 0.37 0.33 0.32 0.34 0.38 0.40 0.41 0.38 0.41 0.47 0.39 0.32 0.34 0.32 0.26 0.19 0.21 0.25 0.31 0.41 0.40 0.40 0.39 0.42 0.44 0.45 0.58 0.73 1.00 1.23 1.34
1.15 1.09 1.03 0.99 0.91 0.80 0.70 0.65 0.61 0.54 0.37 0.28 0.26 0.29 0.31 0.32 0.32 0.40 0.43 0.41 0.40 0.43 0.42 0.37 0.34 0.28 0.19 0.17 0.21 0.22 0.25 0.35 0.43 0.45 0.50 0.52 0.53 0.51 0.63 0.81 1.00 1.21 1.27
1.09 1.00 0.92 0.81 0.70 0.60 0.58 0.56 0.47 0.35 0.25 0.23 0.26 0.28 0.28 0.23 0.24 0.37 0.41 0.41 0.46 0.43 0.41 0.40 0.35 0.28 0.22 0.16 0.14 0.14 0.17 0.27 0.44 0.55 0.58 0.57 0.56 0.59 0.74 0.88 1.09 1.29 1.40
0.91 0.80 0.70 0.61 0.52 0.48 0.48 0.47 0.37 0.26 0.21 0.26 0.30 0.29 0.25 0.24 0.24 0.30 0.33 0.35 0.42 0.41 0.36 0.35 0.33 0.28 0.24 0.17 0.10 0.10 0.12 0.19 0.31 0.48 0.64 0.63 0.58 0.74 1.03 1.20 1.32 1.47 1.53
0.73 0.62 0.55 0.53 0.49 0.42 0.39 0.34 0.26 0.24 0.27 0.33 0.32 0.29 0.30 0.30 0.24 0.24 0.22 0.23 0.26 0.27 0.31 0.31 0.31 0.29 0.27 0.18 0.14 0.16 0.18 0.20 0.26 0.40 0.59 0.72 0.76 0.92 1.20 1.42 1.52 1.57 1.47
0.57 0.50 0.48 0.46 0.41 0.35 0.31 0.26 0.23 0.24 0.31 0.31 0.26 0.24 0.24 0.24 0.25 0.19 0.13 0.11 0.11 0.10 0.16 0.23 0.25 0.27 0.23 0.16 0.16 0.18 0.20 0.23 0.28 0.36 0.53 0.73 0.83 1.03 1.24 1.38 1.39 1.33 1.23
0.40 0.37 0.35 0.33 0.30 0.27 0.24 0.22 0.20 0.19 0.25 0.28 0.24 0.21 0.18 0.16 0.15 0.15 0.13 0.08 0.06 0.06 0.08 0.12 0.15 0.16 0.16 0.14 0.13 0.15 0.19 0.24 0.31 0.39 0.61 0.79 0.89 1.04 1.16 1.24 1.20 1.11 1.02

GEFSMW_prec_meanprecacc_186.txt.gz
Total_Precipitation_Accumulation
1.00 1.30 1.82 2.50 2.96 3.09 3.07 3.12 3.07 3.10 3.11 3.05 3.10 3.33 3.52 3.56 3.51 3.61 3.65 3.49 3.40 3.43 3.56 3.58 3.53 3.29 3.10 2.96 2.88 2.80 2.60 2.34 2.15 2.14 2.07 1.87 1.69 1.66 1.58 1.50 1.50 1.41 1.36
0.94 1.34 1.75 2.18 2.57 2.88 2.98 3.07 3.01 3.17 3.38 3.67 4.06 4.37 4.60 4.56 4.41 4.33 4.23 4.07 3.94 3.87 3.80 3.79 3.62 3.37 3.23 3.02 2.82 2.75 2.62 2.42 2.27 2.23 2.29 2.04 1.86 1.62 1.46 1.49 1.44 1.35 1.30
1.01 1.31 1.54 1.86 2.19 2.51 2.75 2.89 3.10 3.51 3.90 4.36 5.04 5.49 5.40 5.08 4.92 4.66 4.54 4.30 4.02 3.94 3.93 3.69 3.49 3.28 3.09 2.96 2.77 2.68 2.62 2.43 2.31 2.26 2.36 2.20 2.00 1.78 1.63 1.47 1.36 1.34 1.34
1.08 1.18 1.37 1.63 1.88 2.25 2.62 2.93 3.30 3.82 4.40 4.83 5.27 5.56 5.58 5.37 5.15 4.73 4.37 3.99 3.63 3.43 3.30 3.19 2.99 2.87 2.75 2.62 2.48 2.46 2.42 2.31 2.16 2.10 1.97 1.87 1.78 1.74 1.63 1.50 1.36 1.33 1.34
0.97 1.05 1.14 1.33 1.67 2.08 2.50 2.86 3.20 3.77 4.33 4.84 5.19 5.36 5.46 5.35 5.03 4.41 3.83 3.45 3.13 2.88 2.64 2.45 2.35 2.33 2.25 2.07 1.91 1.88 1.87 1.83 1.79 1.78 1.69 1.61 1.56 1.55 1.50 1.47 1.41 1.33 1.24
0.90 0.91 1.01 1.16 1.50 1.87 2.32 2.63 2.90 3.54 4.20 4.77 5.17 5.38 5.40 5.13 4.55 3.94 3.40 3.08 2.82 2.57 2.35 2.19 2.01 1.90 1.78 1.62 1.46 1.38 1.40 1.46 1.50 1.51 1.49 1.39 1.34 1.34 1.38 1.33 1.28 1.23 1.17
0.83 0.85 0.99 1.07 1.33 1.67 2.00 2.31 2.64 3.10 3.60 4.04 4.30 4.49 4.52 4.30 3.97 3.60 3.15 2.79 2.56 2.32 2.05 1.77 1.59 1.49 1.41 1.32 1.25 1.16 1.14 1.21 1.26 1.25 1.24 1.24 1.18 1.17 1.23 1.26 1.24 1.19 1.12
0.90 0.91 1.02 1.09 1.17 1.39 1.66 2.02 2.34 2.63 2.86 3.04 3.25 3.26 3.22 3.16 3.02 2.70 2.35 2.07 1.81 1.64 1.45 1.26 1.18 1.12 1.10 1.08 1.06 1.01 0.95 0.99 1.10 1.15 1.19 1.21 1.20 1.23 1.26 1.29 1.34 1.38 1.27
0.92 0.93 1.03 1.06 1.12 1.23 1.44 1.66 1.82 2.00 2.05 2.01 2.03 2.10 2.13 2.13 2.04 1.88 1.62 1.33 1.12 0.99 0.91 0.84 0.82 0.75 0.77 0.82 0.86 0.88 0.89 0.93 0.95 0.99 1.03 1.08 1.13 1.17 1.16 1.20 1.29 1.44 1.46
0.94 0.99 1.03 1.10 1.15 1.18 1.35 1.46 1.44 1.43 1.46 1.48 1.47 1.45 1.48 1.52 1.52 1.44 1.31 1.15 0.97 0.82 0.72 0.68 0.64 0.57 0.56 0.59 0.65 0.71 0.77 0.86 0.87 0.85 0.85 0.88 0.94 1.09 1.18 1.25 1.31 1.40 1.48
0.95 1.04 1.03 1.00 0.99 0.98 1.02 1.05 1.08 1.13 1.13 1.12 1.14 1.16 1.13 1.09 1.07 1.10 1.10 1.00 0.86 0.74 0.65 0.57 0.55 0.54 0.50 0.50 0.54 0.56 0.61 0.70 0.74 0.70 0.72 0.78 0.84 0.92 0.99 1.10 1.22 1.37 1.50
0.99 0.97 0.93 0.84 0.81 0.84 0.87 0.86 0.88 0.91 0.94 0.95 0.93 0.95 0.88 0.84 0.83 0.81 0.82 0.77 0.74 0.71 0.65 0.60 0.59 0.54 0.48 0.47 0.48 0.48 0.47 0.52 0.58 0.61 0.64 0.63 0.66 0.76 0.83 0.92 1.02 1.13 1.24
1.16 1.06 0.97 0.84 0.79 0.79 0.79 0.75 0.73 0.72 0.69 0.70 0.73 0.77 0.74 0.70 0.72 0.68 0.67 0.69 0.68 0.64 0.59 0.57 0.55 0.51 0.49 0.50 0.49 0.46 0.45 0.43 0.46 0.50 0.56 0.60 0.64 0.73 0.79 0.88 0.92 0.98 1.03
1.16 1.03 0.98 0.88 0.83 0.78 0.72 0.68 0.64 0.61 0.59 0.56 0.56 0.61 0.62 0.60 0.60 0.62 0.58 0.55 0.54 0.54 0.47 0.43 0.45 0.47 0.44 0.39 0.37 0.37 0.39 0.40 0.40 0.40 0.43 0.48 0.55 0.65 0.75 0.80 0.87 0.96 1.06
1.20 1.13 1.05 0.95 0.85 0.80 0.72 0.66 0.62 0.55 0.51 0.53 0.55 0.57 0.59 0.56 0.57 0.58 0.56 0.49 0.44 0.41 0.39 0.37 0.38 0.38 0.33 0.29 0.28 0.30 0.30 0.35 0.37 0.39 0.39 0.38 0.43 0.53 0.59 0.65 0.79 0.98 1.13
1.21 1.14 1.05 0.97 0.89 0.85 0.81 0.75 0.70 0.61 0.58 0.61 0.62 0.60 0.60 0.61 0.61 0.57 0.53 0.48 0.43 0.40 0.37 0.38 0.35 0.29 0.22 0.23 0.25 0.25 0.30 0.35 0.40 0.47 0.44 0.35 0.33 0.37 0.42 0.50 0.61 0.78 0.99
1.35 1.29 1.19 1.09 1.02 0.94 0.85 0.81 0.76 0.70 0.66 0.66 0.62 0.59 0.56 0.57 0.52 0.46 0.48 0.47 0.45 0.41 0.38 0.38 0.35 0.31 0.21 0.16 0.18 0.20 0.26 0.38 0.46 0.50 0.50 0.38 0.32 0.39 0.46 0.48 0.50 0.60 0.75
1.49 1.39 1.29 1.21 1.15 1.05 0.96 0.88 0.77 0.69 0.64 0.62 0.56 0.49 0.49 0.53 0.47 0.46 0.48 0.44 0.45 0.46 0.41 0.36 0.36 0.35 0.20 0.15 0.17 0.20 0.30 0.40 0.43 0.42 0.44 0.48 0.51 0.43 0.42 0.48 0.63 0.78 0.84
1.44 1.36 1.28 1.24 1.17 1.06 0.96 0.85 0.74 0.62 0.56 0.55 0.49 0.42 0.41 0.40 0.40 0.40 0.43 0.45 0.47 0.50 0.43 0.36 0.38 0.38 0.28 0.20 0.20 0.23 0.34 0.41 0.39 0.36 0.35 0.38 0.46 0.43 0.47 0.62 0.86 1.06 1.20
1.25 1.23 1.20 1.15 1.10 0.97 0.84 0.77 0.73 0.64 0.53 0.46 0.41 0.38 0.37 0.37 0.40 0.42 0.44 0.41 0.46 0.52 0.42 0.34 0.35 0.32 0.27 0.20 0.22 0.28 0.34 0.43 0.41 0.42 0.41 0.44 0.45 0.46 0.59 0.74 1.02 1.25 1.35
1.17 1.11 1.05 1.00 0.94 0.84 0.75 0.70 0.65 0.57 0.42 0.33 0.31 0.33 0.34 0.34 0.34 0.42 0.45 0.44 0.44 0.49 0.46 0.40 0.37 0.29 0.20 0.18 0.22 0.25 0.30 0.37 0.44 0.46 0.51 0.53 0.54 0.52 0.63 0.81 1.01 1.23 1.29
1.11 1.02 0.94 0.83 0.73 0.64 0.63 0.62 0.51 0.38 0.29 0.28 0.30 0.31 0.30 0.25 0.26 0.39 0.43 0.43 0.49 0.46 0.44 0.45 0.41 0.30 0.23 0.17 0.15 0.16 0.20 0.29 0.45 0.56 0.59 0.57 0.57 0.60 0.75 0.89 1.09 1.30 1.41
0.92 0.82 0.72 0.63 0.56 0.54 0.56 0.53 0.40 0.29 0.24 0.29 0.34 0.31 0.27 0.25 0.26 0.32 0.35 0.37 0.44 0.43 0.38 0.38 0.35 0.29 0.25 0.18 0.11 0.11 0.13 0.20 0.32 0.49 0.64 0.63 0.59 0.74 1.03 1.20 1.32 1.48 1.54
0.74 0.64 0.58 0.55 0.52 0.47 0.43 0.37 0.28 0.26 0.29 0.36 0.36 0.32 0.32 0.31 0.26 0.25 0.23 0.24 0.27 0.29 0.33 0.33 0.33 0.31 0.27 0.19 0.14 0.16 0.18 0.21 0.27 0.40 0.60 0.72 0.76 0.92 1.21 1.42 1.53 1.58 1.48
0.59 0.52 0.51 0.49 0.44 0.38 0.33 0.28 0.25 0.26 0.34 0.35 0.30 0.28 0.27 0.26 0.25 0.20 0.14 0.13 0.13 0.12 0.19 0.25 0.27 0.28 0.24 0.16 0.16 0.19 0.20 0.23 0.29 0.36 0.54 0.73 0.83 1.03 1.25 1.39 1.40 1.34 1.24
0.41 0.39 0.37 0.34 0.32 0.29 0.26 0.24 0.22 0.21 0.28 0.32 0.29 0.24 0.21 0.18 0.16 0.16 0.15 0.09 0.08 0.08 0.10 0.14 0.17 0.17 0.17 0.15 0.14 0.15 0.20 0.25 0.32 0.39 0.62 0.80 0.90 1.05 1.17 1.25 1.22 1.12 1.03

GEFSMW_prec_meanprecacc_192.txt.gz
Total_Precipitation_Accumulation
1.05 1.35 1.88 2.57 3.05 3.18 3.16 3.22 3.19 3.23 3.26 3.18 3.21 3.43 3.61 3.65 3.59 3.68 3.72 3.57 3.47 3.49 3.63 3.64 3.60 3.36 3.16 3.00 2.92 2.83 2.62 2.36 2.16 2.15 2.08 1.89 1.70 1.68 1.60 1.53 1.53 1.42 1.38
0.96 1.36 1.79 2.22 2.64 2.95 3.06 3.17 3.11 3.30 3.53 3.83 4.21 4.51 4.71 4.66 4.49 4.42 4.31 4.14 4.02 3.93 3.86 3.86 3.68 3.43 3.27 3.06 2.87 2.78 2.64 2.43 2.29 2.25 2.31 2.06 1.88 1.64 1.48 1.51 1.46 1.37 1.32
1.03 1.33 1.58 1.92 2.27 2.59 2.81 2.96 3.20 3.63 4.03 4.52 5.22 5.63 5.51 5.17 5.00 4.73 4.62 4.39 4.11 4.01 3.99 3.74 3.54 3.33 3.13 3.00 2.81 2.71 2.64 2.44 2.33 2.28 2.39 2.22 2.02 1.79 1.65 1.49 1.38 1.36 1.36
1.10 1.20 1.40 1.69 1.95 2.30 2.68 3.00 3.40 3.95 4.53 4.97 5.42 5.71 5.70 5.47 5.24 4.82 4.44 4.06 3.71 3.48 3.35 3.24 3.03 2.91 2.78 2.65 2.50 2.47 2.42 2.32 2.16 2.12 1.99 1.91 1.81 1.76 1.65 1.52 1.38 1.34 1.35
0.98 1.07 1.17 1.38 1.72 2.15 2.56 2.93 3.32 3.94 4.48 4.97 5.31 5.53 5.59 5.46 5.13 4.51 3.91 3.52 3.20 2.94 2.69 2.48 2.38 2.36 2.28 2.10 1.93 1.89 1.87 1.84 1.79 1.79 1.71 1.65 1.60 1.58 1.52 1.49 1.43 1.36 1.26
0.92 0.93 1.04 1.19 1.55 1.93 2.41 2.74 3.05 3.70 4.35 4.90 5.27 5.51 5.53 5.25 4.66 4.03 3.49 3.15 2.89 2.62 2.38 2.22 2.05 1.95 1.83 1.68 1.51 1.40 1.41 1.47 1.50 1.52 1.50 1.41 1.38 1.38 1.40 1.36 1.31 1.26 1.21
0.85 0.87 1.03 1.09 1.36 1.72 2.08 2.43 2.77 3.23 3.71 4.14 4.41 4.60 4.63 4.39 4.05 3.68 3.22 2.84 2.60 2.35 2.08 1.81 1.63 1.54 1.45 1.35 1.28 1.17 1.14 1.21 1.27 1.26 1.25 1.26 1.21 1.20 1.26 1.30 1.29 1.23 1.16
0.92 0.93 1.05 1.11 1.20 1.43 1.72 2.10 2.43 2.72 2.96 3.15 3.36 3.35 3.30 3.24 3.08 2.76 2.40 2.11 1.85 1.68 1.49 1.28 1.20 1.14 1.12 1.10 1.07 1.01 0.95 1.00 1.10 1.15 1.20 1.22 1.21 1.25 1.29 1.32 1.37 1.42 1.30
0.94 0.96 1.06 1.10 1.16 1.28 1.48 1.71 1.87 2.06 2.12 2.08 2.10 2.16 2.19 2.18 2.10 1.93 1.67 1.38 1.16 1.03 0.94 0.87 0.84 0.77 0.80 0.84 0.87 0.89 0.89 0.93 0.95 0.99 1.04 1.09 1.15 1.19 1.18 1.23 1.32 1.47 1.49
0.96 1.02 1.08 1.15 1.20 1.22 1.40 1.50 1.48 1.47 1.50 1.52 1.51 1.49 1.54 1.58 1.57 1.50 1.37 1.20 1.01 0.86 0.76 0.73 0.68 0.59 0.57 0.62 0.67 0.73 0.78 0.86 0.88 0.85 0.86 0.89 0.95 1.11 1.20 1.27 1.34 1.43 1.51
0.99 1.08 1.07 1.04 1.03 1.02 1.06 1.09 1.13 1.18 1.18 1.16 1.17 1.20 1.16 1.13 1.11 1.14 1.14 1.03 0.90 0.77 0.69 0.63 0.61 0.58 0.53 0.52 0.56 0.58 0.62 0.71 0.75 0.71 0.72 0.79 0.85 0.93 1.00 1.12 1.24 1.40 1.53
1.04 1.02 0.97 0.88 0.84 0.87 0.90 0.90 0.92 0.95 0.99 1.00 0.98 0.99 0.91 0.86 0.85 0.84 0.84 0.80 0.78 0.75 0.70 0.65 0.64 0.58 0.52 0.49 0.50 0.50 0.49 0.54 0.59 0.62 0.64 0.63 0.66 0.77 0.85 0.95 1.05 1.16 1.27
1.20 1.10 1.00 0.87 0.81 0.80 0.82 0.77 0.76 0.75 0.72 0.73 0.75 0.79 0.76 0.72 0.73 0.70 0.68 0.72 0.71 0.70 0.66 0.63 0.60 0.55 0.53 0.53 0.51 0.48 0.47 0.45 0.47 0.51 0.57 0.61 0.65 0.74 0.82 0.91 0.95 1.01 1.06
1.19 1.06 1.01 0.91 0.85 0.80 0.75 0.71 0.67 0.63 0.60 0.57 0.57 0.62 0.63 0.61 0.62 0.64 0.61 0.58 0.56 0.58 0.53 0.48 0.49 0.50 0.47 0.43 0.40 0.39 0.41 0.42 0.41 0.41 0.45 0.49 0.57 0.66 0.77 0.83 0.90 0.98 1.08
1.23 1.16 1.07 0.97 0.87 0.81 0.73 0.68 0.64 0.56 0.52 0.54 0.56 0.58 0.60 0.58 0.60 0.61 0.59 0.52 0.46 0.44 0.42 0.41 0.41 0.41 0.36 0.32 0.31 0.32 0.32 0.37 0.39 0.40 0.40 0.39 0.44 0.55 0.61 0.68 0.81 1.00 1.15
1.23 1.16 1.07 0.99 0.89 0.86 0.82 0.76 0.71 0.63 0.60 0.63 0.64 0.63 0.62 0.64 0.63 0.59 0.56 0.50 0.46 0.42 0.39 0.41 0.38 0.31 0.24 0.26 0.28 0.28 0.32 0.37 0.42 0.48 0.46 0.36 0.34 0.38 0.44 0.52 0.63 0.81 1.03
1.37 1.31 1.20 1.10 1.02 0.94 0.86 0.83 0.78 0.71 0.68 0.67 0.65 0.62 0.59 0.60 0.53 0.48 0.51 0.49 0.47 0.43 0.39 0.40 0.37 0.32 0.22 0.18 0.20 0.22 0.28 0.39 0.47 0.52 0.51 0.40 0.33 0.40 0.47 0.49 0.52 0.62 0.79
1.52 1.41 1.30 1.22 1.16 1.05 0.97 0.89 0.79 0.72 0.66 0.63 0.58 0.51 0.51 0.56 0.50 0.48 0.50 0.47 0.46 0.47 0.42 0.38 0.38 0.36 0.21 0.16 0.18 0.21 0.32 0.42 0.44 0.43 0.45 0.49 0.52 0.44 0.44 0.50 0.65 0.80 0.87
1.46 1.38 1.29 1.24 1.18 1.07 0.97 0.86 0.76 0.65 0.58 0.56 0.50 0.45 0.44 0.44 0.44 0.44 0.46 0.48 0.49 0.52 0.45 0.38 0.40 0.40 0.29 0.21 0.22 0.25 0.36 0.43 0.40 0.37 0.36 0.39 0.46 0.44 0.49 0.64 0.88 1.07 1.21
1.26 1.24 1.21 1.16 1.11 0.98 0.85 0.79 0.75 0.66 0.54 0.47 0.42 0.41 0.41 0.41 0.44 0.46 0.48 0.45 0.49 0.55 0.45 0.37 0.38 0.35 0.29 0.22 0.24 0.29 0.35 0.44 0.42 0.43 0.42 0.46 0.47 0.49 0.61 0.76 1.03 1.25 1.36
1.18 1.11 1.06 1.02 0.96 0.87 0.77 0.72 0.68 0.59 0.43 0.34 0.33 0.36 0.37 0.38 0.38 0.46 0.49 0.48 0.47 0.51 0.49 0.43 0.39 0.32 0.23 0.19 0.23 0.26 0.31 0.38 0.45 0.48 0.53 0.55 0.56 0.54 0.65 0.83 1.02 1.23 1.29
1.13 1.03 0.95 0.84 0.75 0.67 0.66 0.64 0.53 0.39 0.30 0.30 0.32 0.34 0.33 0.28 0.29 0.42 0.46 0.46 0.50 0.47 0.47 0.50 0.48 0.35 0.26 0.18 0.16 0.18 0.22 0.30 0.48 0.58 0.60 0.58 0.58 0.61 0.76 0.89 1.10 1.30 1.42
0.94 0.83 0.73 0.64 0.57 0.56 0.58 0.54 0.40 0.29 0.25 0.31 0.36 0.33 0.29 0.28 0.27 0.34 0.37 0.38 0.45 0.44 0.41 0.42 0.40 0.33 0.29 0.20 0.11 0.12 0.15 0.21 0.34 0.51 0.65 0.64 0.60 0.75 1.03 1.21 1.33 1.49 1.54
0.76 0.65 0.59 0.57 0.54 0.49 0.45 0.38 0.29 0.27 0.30 0.37 0.37 0.34 0.35 0.33 0.27 0.26 0.25 0.26 0.29 0.31 0.36 0.35 0.34 0.32 0.29 0.20 0.15 0.17 0.19 0.21 0.27 0.41 0.60 0.73 0.76 0.92 1.21 1.44 1.54 1.58 1.49
0.60 0.53 0.53 0.52 0.48 0.40 0.34 0.28 0.26 0.26 0.34 0.36 0.31 0.29 0.29 0.29 0.27 0.22 0.16 0.14 0.14 0.14 0.21 0.26 0.28 0.29 0.24 0.17 0.17 0.19 0.20 0.23 0.29 0.37 0.54 0.74 0.84 1.04 1.26 1.40 1.41 1.35 1.25
0.43 0.41 0.40 0.38 0.35 0.31 0.27 0.25 0.22 0.21 0.28 0.32 0.31 0.25 0.23 0.21 0.18 0.18 0.16 0.10 0.09 0.09 0.11 0.15 0.17 0.18 0.17 0.15 0.14 0.16 0.20 0.26 0.32 0.40 0.62 0.81 0.90 1.06 1.18 1.26 1.23 1.13 1.04

GEFSMW_prec_meanprecacc_198.txt.gz
Total_Precipitation_Accumulation
1.15 1.41 1.90 2.59 3.07 3.21 3.20 3.26 3.24 3.29 3.34 3.27 3.30 3.50 3.67 3.71 3.65 3.74 3.79 3.64 3.54 3.58 3.72 3.72 3.66 3.41 3.21 3.05 2.98 2.90 2.69 2.43 2.23 2.21 2.13 1.92 1.72 1.70 1.63 1.57 1.57 1.46 1.42
1.04 1.42 1.81 2.24 2.66 2.98 3.10 3.21 3.16 3.35 3.59 3.92 4.33 4.63 4.81 4.74 4.59 4.53 4.43 4.25 4.12 4.05 4.00 3.99 3.79 3.51 3.34 3.11 2.92 2.83 2.69 2.48 2.34 2.29 2.35 2.10 1.92 1.67 1.51 1.54 1.50 1.42 1.37
1.05 1.36 1.60 1.94 2.29 2.61 2.84 3.00 3.24 3.68 4.12 4.64 5.36 5.76 5.61 5.26 5.08 4.81 4.70 4.49 4.22 4.12 4.07 3.83 3.63 3.40 3.19 3.04 2.85 2.76 2.68 2.47 2.36 2.32 2.44 2.27 2.06 1.83 1.68 1.52 1.41 1.40 1.41
1.10 1.21 1.41 1.71 1.96 2.33 2.71 3.03 3.43 4.00 4.59 5.06 5.56 5.84 5.80 5.56 5.31 4.88 4.51 4.15 3.80 3.57 3.43 3.32 3.10 2.98 2.84 2.71 2.54 2.51 2.46 2.35 2.18 2.13 2.02 1.93 1.84 1.80 1.68 1.54 1.40 1.37 1.40
0.99 1.08 1.18 1.39 1.74 2.17 2.58 2.97 3.36 3.97 4.52 5.03 5.41 5.65 5.70 5.55 5.21 4.57 3.97 3.59 3.26 2.99 2.73 2.52 2.41 2.39 2.31 2.13 1.97 1.93 1.91 1.87 1.82 1.81 1.73 1.67 1.62 1.61 1.55 1.52 1.45 1.39 1.30
0.93 0.94 1.04 1.20 1.56 1.94 2.42 2.77 3.07 3.73 4.40 4.96 5.34 5.59 5.61 5.31 4.72 4.09 3.55 3.20 2.94 2.67 2.41 2.24 2.06 1.97 1.85 1.70 1.54 1.45 1.44 1.50 1.53 1.54 1.52 1.43 1.40 1.40 1.44 1.40 1.34 1.30 1.24
0.85 0.88 1.04 1.11 1.38 1.73 2.10 2.45 2.79 3.26 3.74 4.17 4.44 4.64 4.70 4.48 4.12 3.74 3.27 2.90 2.66 2.42 2.16 1.85 1.66 1.55 1.46 1.37 1.30 1.19 1.17 1.23 1.28 1.27 1.27 1.27 1.23 1.22 1.29 1.34 1.32 1.26 1.19
0.92 0.93 1.06 1.13 1.22 1.45 1.74 2.12 2.45 2.74 2.98 3.17 3.38 3.38 3.35 3.31 3.17 2.84 2.46 2.18 1.92 1.76 1.61 1.41 1.26 1.17 1.14 1.11 1.09 1.02 0.97 1.01 1.11 1.16 1.21 1.23 1.23 1.27 1.32 1.36 1.41 1.45 1.33
0.94 0.97 1.08 1.13 1.19 1.31 1.51 1.74 1.89 2.08 2.13 2.09 2.12 2.19 2.22 2.22 2.14 2.00 1.75 1.47 1.25 1.11 1.01 0.96 0.92 0.80 0.82 0.86 0.89 0.90 0.91 0.95 0.96 1.00 1.05 1.10 1.17 1.22 1.22 1.26 1.36 1.51 1.52
0.97 1.03 1.09 1.17 1.22 1.24 1.42 1.53 1.51 1.50 1.53 1.54 1.53 1.50 1.55 1.60 1.60 1.54 1.41 1.24 1.07 0.94 0.84 0.79 0.73 0.64 0.60 0.64 0.69 0.75 0.80 0.89 0.89 0.86 0.87 0.90 0.97 1.14 1.25 1.32 1.39 1.49 1.57
1.01 1.10 1.10 1.06 1.05 1.04 1.08 1.12 1.15 1.20 1.20 1.17 1.19 1.21 1.18 1.14 1.12 1.16 1.16 1.06 0.94 0.82 0.74 0.67 0.65 0.63 0.57 0.55 0.59 0.60 0.64 0.73 0.77 0.73 0.75 0.81 0.88 0.96 1.04 1.17 1.30 1.47 1.61
1.07 1.05 1.00 0.90 0.86 0.89 0.92 0.91 0.94 0.97 1.01 1.02 1.00 1.00 0.93 0.87 0.87 0.86 0.86 0.82 0.82 0.79 0.73 0.69 0.67 0.61 0.54 0.52 0.53 0.52 0.51 0.56 0.61 0.64 0.68 0.67 0.70 0.81 0.89 0.99 1.11 1.23 1.34
1.25 1.16 1.05 0.92 0.83 0.82 0.84 0.78 0.77 0.77 0.74 0.76 0.78 0.81 0.77 0.73 0.75 0.71 0.70 0.73 0.74 0.73 0.69 0.67 0.62 0.57 0.55 0.55 0.54 0.50 0.49 0.47 0.49 0.54 0.60 0.64 0.70 0.79 0.87 0.96 1.00 1.07 1.11
1.23 1.13 1.05 0.95 0.88 0.82 0.77 0.73 0.69 0.65 0.62 0.60 0.59 0.64 0.65 0.64 0.65 0.66 0.64 0.61 0.60 0.61 0.56 0.51 0.52 0.53 0.50 0.45 0.42 0.41 0.43 0.44 0.43 0.44 0.48 0.53 0.61 0.71 0.82 0.88 0.95 1.04 1.13
1.29 1.23 1.13 1.01 0.90 0.84 0.74 0.69 0.66 0.58 0.54 0.55 0.58 0.60 0.62 0.61 0.62 0.65 0.62 0.55 0.49 0.46 0.45 0.43 0.43 0.44 0.39 0.35 0.33 0.34 0.34 0.38 0.41 0.43 0.43 0.42 0.47 0.57 0.64 0.70 0.85 1.05 1.22
1.29 1.23 1.11 1.01 0.92 0.87 0.83 0.77 0.71 0.63 0.60 0.64 0.66 0.65 0.64 0.66 0.65 0.62 0.58 0.53 0.49 0.45 0.42 0.45 0.41 0.34 0.26 0.27 0.29 0.29 0.33 0.39 0.44 0.51 0.49 0.40 0.37 0.41 0.47 0.54 0.65 0.84 1.09
1.42 1.36 1.24 1.13 1.04 0.96 0.87 0.83 0.78 0.71 0.68 0.68 0.66 0.63 0.61 0.62 0.56 0.51 0.54 0.52 0.50 0.46 0.42 0.43 0.40 0.35 0.25 0.20 0.21 0.24 0.30 0.41 0.49 0.55 0.54 0.43 0.36 0.43 0.50 0.52 0.55 0.65 0.82
1.57 1.46 1.34 1.25 1.18 1.07 0.98 0.89 0.79 0.72 0.67 0.64 0.58 0.52 0.53 0.59 0.53 0.51 0.53 0.50 0.50 0.50 0.45 0.41 0.40 0.39 0.24 0.20 0.22 0.25 0.35 0.45 0.46 0.45 0.47 0.52 0.55 0.47 0.47 0.53 0.68 0.83 0.91
1.51 1.42 1.31 1.27 1.19 1.07 0.98 0.87 0.76 0.65 0.58 0.56 0.51 0.45 0.45 0.47 0.47 0.47 0.50 0.52 0.53 0.56 0.48 0.41 0.43 0.43 0.32 0.24 0.26 0.30 0.40 0.46 0.44 0.39 0.38 0.41 0.50 0.48 0.53 0.68 0.91 1.11 1.25
1.29 1.26 1.23 1.17 1.12 0.99 0.86 0.79 0.76 0.67 0.55 0.48 0.43 0.41 0.42 0.42 0.46 0.49 0.51 0.48 0.52 0.58 0.48 0.40 0.41 0.38 0.32 0.24 0.26 0.32 0.38 0.46 0.44 0.45 0.44 0.49 0.51 0.52 0.65 0.80 1.08 1.29 1.39
1.20 1.13 1.07 1.03 0.97 0.88 0.77 0.73 0.69 0.60 0.44 0.34 0.34 0.36 0.38 0.38 0.39 0.48 0.51 0.51 0.50 0.53 0.51 0.46 0.41 0.34 0.24 0.21 0.24 0.28 0.32 0.39 0.46 0.49 0.54 0.58 0.59 0.58 0.69 0.86 1.04 1.25 1.32
1.14 1.04 0.96 0.85 0.77 0.69 0.66 0.65 0.53 0.40 0.30 0.30 0.32 0.34 0.33 0.28 0.30 0.44 0.48 0.48 0.52 0.49 0.49 0.52 0.50 0.38 0.28 0.19 0.16 0.18 0.23 0.31 0.49 0.59 0.61 0.61 0.60 0.62 0.77 0.90 1.11 1.31 1.44
0.95 0.84 0.74 0.65 0.59 0.58 0.59 0.55 0.42 0.30 0.26 0.32 0.37 0.34 0.30 0.29 0.29 0.35 0.39 0.40 0.46 0.45 0.42 0.44 0.42 0.35 0.30 0.21 0.12 0.12 0.16 0.23 0.36 0.51 0.66 0.65 0.60 0.76 1.04 1.22 1.34 1.49 1.56
0.78 0.66 0.60 0.58 0.55 0.51 0.47 0.41 0.31 0.29 0.32 0.38 0.38 0.35 0.36 0.34 0.28 0.27 0.26 0.28 0.31 0.33 0.38 0.38 0.36 0.34 0.31 0.21 0.15 0.17 0.19 0.23 0.28 0.42 0.61 0.74 0.77 0.93 1.22 1.45 1.55 1.60 1.51
0.62 0.54 0.53 0.53 0.49 0.43 0.37 0.31 0.28 0.28 0.36 0.37 0.32 0.30 0.30 0.29 0.28 0.22 0.17 0.16 0.16 0.17 0.24 0.28 0.30 0.31 0.26 0.18 0.18 0.20 0.21 0.24 0.29 0.37 0.55 0.74 0.84 1.05 1.28 1.42 1.42 1.37 1.27
0.45 0.43 0.42 0.39 0.36 0.32 0.29 0.26 0.23 0.22 0.29 0.33 0.31 0.26 0.24 0.22 0.18 0.18 0.17 0.12 0.11 0.11 0.13 0.17 0.18 0.19 0.19 0.16 0.15 0.16 0.21 0.26 0.33 0.40 0.63 0.82 0.92 1.07 1.20 1.27 1.24 1.15 1.06